Location: Natural Bridges National Monument
(37.6093°N, 109.9767°W)
Time: 01:43:03
(UTC-07:00)

Amateur Radio Satellites - All Passes

Search period start: 26 November 2014 01:13
Search period end: 27 November 2014 01:13
Location: Natural Bridges National Monument, 37.6093°N, 109.9767°W

Satellite Date Start Highest point End Downlink Frequencies (MHz)
Time Altitude Azimuth
STARS 26 Nov 01:14:00 01:16:27 15° 65° (ENE) 01:18:55 437.465
Oscar 19 26 Nov 01:19:31 01:24:16 36° 98° (E) 01:28:59 437.125/150
BEESAT 26 Nov 01:25:03 01:29:43 54° 260° (W) 01:34:26 436.000
AUBIESAT-1 26 Nov 01:35:36 01:38:33 20° 263° (W) 01:41:42 437.475
M-CUBED/EXP-1 PRIME 26 Nov 01:41:27 01:43:53 16° 264° (W) 01:46:27 437.505
KKS-1 26 Nov 01:52:19 01:56:41 59° 74° (ENE) 02:01:04 437.445
CUSAT 1 26 Nov 01:55:45 01:56:30 10° 270° (W) 01:57:17 437.405
RS-15 26 Nov 02:00:44 02:11:59 76° 244° (WSW) 02:23:45 29.354- 29.394
ITAMSAT 1 26 Nov 02:12:25 02:17:21 43° 99° (E) 02:22:14 435.822/435.867
ITUPSAT 1 26 Nov 02:23:11 02:25:48 15° 268° (W) 02:28:25 437.325
JUGNU 26 Nov 02:28:31 02:30:53 12° 186° (S) 02:33:16 437.505
SRMSAT 26 Nov 02:38:49 02:41:39 14° 179° (S) 02:44:29 437.500
Gurwin Techsat 1B 26 Nov 02:44:23 02:49:34 51° 100° (E) 02:54:42 435.225
STARS 26 Nov 02:48:17 02:52:32 47° 260° (W) 02:56:47 437.465
YUBILEINY 26 Nov 02:55:08 03:03:58 89° 276° (W) 03:12:48 435.215
Oscar 19 26 Nov 02:59:14 03:03:24 25° 293° (WNW) 03:07:33 437.125/150
HORYU 2 26 Nov 03:02:53 03:06:55 32° 97° (E) 03:10:56 437.375
KKS-1 26 Nov 03:32:23 03:33:40 11° 269° (W) 03:34:58 437.445
PCSat 26 Nov 03:52:25 03:56:14 19° 48° (NE) 04:00:02 145.827
ITAMSAT 1 26 Nov 03:52:41 03:56:30 21° 295° (WNW) 04:00:18 435.822/435.867
SO-50 26 Nov 03:53:37 03:58:06 83° 301° (WNW) 04:02:46 436.795
AO-7 26 Nov 04:16:44 04:24:54 54° 102° (ESE) 04:33:01 29.400- 29.500
RS-15 26 Nov 04:16:49 04:22:30 15° 262° (W) 04:28:19 29.354- 29.394
Gurwin Techsat 1B 26 Nov 04:25:28 04:29:06 19° 296° (WNW) 04:32:43 435.225
BEESAT 3 26 Nov 04:26:22 04:29:41 22° 50° (NE) 04:32:57 437.485
JAS-2 26 Nov 04:28:03 04:33:05 21° 89° (E) 04:37:41 435.910
SRMSAT 26 Nov 04:28:09 04:29:58 11° 189° (S) 04:31:47 437.500
MOZHAYETS 4 26 Nov 04:33:36 04:38:11 84° 77° (ENE) 04:42:49
HORYU 2 26 Nov 04:39:57 04:43:23 22° 292° (WNW) 04:46:50 437.375
BEESAT 2 26 Nov 04:41:39 04:45:18 28° 52° (NE) 04:48:55 435.950
YUBILEINY 26 Nov 04:56:40 05:01:59 17° 296° (WNW) 05:07:19 435.215
O/OREOS (USA 219) 26 Nov 05:07:28 05:10:45 20° 101° (E) 05:14:01 437.305
STRAND 1 26 Nov 05:13:07 05:16:27 18° 64° (ENE) 05:19:48 437.568
AIST 2 26 Nov 05:16:29 05:20:22 32° 53° (NE) 05:24:11 435.215
ISS 26 Nov 05:33:17 05:36:14 29° 32° (NNE) 05:39:09 145.825
CUTE-I 26 Nov 05:34:35 05:38:02 17° 93° (E) 05:41:28 437.470
PCSat 26 Nov 05:34:44 05:40:06 63° 246° (WSW) 05:45:25 145.827
SO-50 26 Nov 05:37:50 05:39:25 12° 320° (NW) 05:41:02 436.795
PRISM 26 Nov 05:43:10 05:47:22 87° 257° (WSW) 05:51:37 437.425
BEESAT 3 26 Nov 06:04:11 06:07:58 33° 246° (WSW) 06:11:41 437.485
AIST 1 26 Nov 06:04:31 06:07:27 17° 73° (ENE) 06:10:21
AO-7 26 Nov 06:10:06 06:17:16 33° 300° (WNW) 06:24:27 29.400- 29.500
JAS-2 26 Nov 06:11:47 06:18:41 58° 289° (WNW) 06:24:44 435.910
CUBESAT XI-V 26 Nov 06:15:18 06:19:59 71° 76° (ENE) 06:24:42 437.345
BEESAT 2 26 Nov 06:20:02 06:23:29 25° 248° (WSW) 06:26:54 435.950
Cubesat XI-IV 26 Nov 06:31:45 06:37:03 65° 102° (ESE) 06:42:18 437.490
O/OREOS (USA 219) 26 Nov 06:45:50 06:49:53 33° 297° (WNW) 06:53:57 437.305
STRAND 1 26 Nov 06:50:10 06:55:11 53° 260° (W) 07:00:14 437.568
GONETS M04 26 Nov 06:53:00 06:58:30 19° 79° (E) 07:04:00
AIST 2 26 Nov 06:55:27 06:58:49 23° 249° (WSW) 07:02:07 435.215
ISS 26 Nov 07:09:58 07:12:49 27° 228° (SW) 07:15:40 145.825
CUTE-I 26 Nov 07:13:14 07:18:23 52° 288° (WNW) 07:23:30 437.470
AIST 1 26 Nov 07:41:15 07:45:13 34° 269° (W) 07:49:07
CUBESAT XI-V 26 Nov 07:57:28 07:57:52 10° 270° (W) 07:58:16 437.345
Cubesat XI-IV 26 Nov 08:13:32 08:16:33 16° 298° (WNW) 08:19:33 437.490
HO-68 26 Nov 08:18:41 08:24:31 26° 95° (E) 08:30:17 435.675
GOMX 1 26 Nov 08:23:24 08:24:28 11° 92° (E) 08:25:32 467.674
CUTE 1.7 & AOD 2 26 Nov 08:24:16 08:27:13 18° 94° (E) 08:30:10 437.475
GONETS M04 26 Nov 08:45:20 08:54:08 82° 277° (W) 09:03:03
BRITE-PL 26 Nov 08:51:07 08:54:53 34° 98° (E) 08:58:44 437.365/2234.400
SEEDS 26 Nov 08:56:07 09:00:04 36° 98° (E) 09:04:01 437.485
Oscar 11 26 Nov 09:02:29 09:05:06 16° 93° (E) 09:07:43 145.826/435.025
AAUSAT CUBESAT 2 26 Nov 09:12:17 09:16:18 41° 98° (E) 09:20:18 437.432
DUCHIFAT 1 26 Nov 09:13:51 09:15:05 11° 64° (ENE) 09:16:19 145.980
DOVE 4 26 Nov 09:15:23 09:19:13 34° 98° (E) 09:23:09 437.250
DELFI C3 26 Nov 09:16:46 09:19:41 18° 94° (E) 09:22:35 145.870
CUBEBUG 2 26 Nov 09:22:10 09:24:38 15° 93° (E) 09:27:09 437.445
UWE-3 26 Nov 09:22:15 09:24:09 13° 92° (E) 09:26:03 435.000/436.395/437.385
CANX-2 26 Nov 09:24:22 09:28:41 80° 283° (WNW) 09:32:58 2200.000
DX 1 26 Nov 09:26:32 09:30:08 25° 96° (E) 09:33:42 434.975-435.025
COMPASS 1 26 Nov 09:27:38 09:31:54 74° 102° (ESE) 09:36:08 437.405
NANOSAT C BR1 26 Nov 09:31:28 09:34:22 18° 67° (ENE) 09:37:16 145.865
QB50P1 26 Nov 09:40:53 09:44:15 23° 69° (ENE) 09:47:36 145.935-145.965
TIGRISAT 26 Nov 09:43:08 09:47:00 34° 72° (ENE) 09:50:51 435.000
CINEMA 3 26 Nov 09:48:40 09:52:47 50° 100° (E) 09:57:02 145.822/145.860
BUGSAT 1 26 Nov 09:49:36 09:53:01 24° 69° (ENE) 09:56:25 437.445
ZACube-1 26 Nov 09:55:08 09:58:44 26° 96° (E) 10:02:22 437.345
UNISAT 6 26 Nov 09:56:40 10:00:48 51° 74° (ENE) 10:04:57 437.425
VELOX 1 26 Nov 09:58:24 10:01:19 17° 94° (E) 10:04:14 145.980
GOMX 1 26 Nov 09:58:50 10:02:53 51° 286° (WNW) 10:07:02 467.674
CUTE 1.7 & AOD 2 26 Nov 09:59:20 10:03:13 34° 288° (WNW) 10:07:06 437.475
POPSAT HIP 1 26 Nov 10:04:57 10:08:59 43° 73° (ENE) 10:13:01 437.405
HO-68 26 Nov 10:05:32 10:12:29 54° 291° (WNW) 10:19:22 435.675
AISAT 26 Nov 10:23:59 10:28:01 34° 98° (E) 10:32:02 437.250
ANTELSAT 26 Nov 10:25:21 10:29:37 72° 258° (WSW) 10:33:53 437.575/2403.000
UKube-1 26 Nov 10:26:08 10:30:27 66° 285° (WNW) 10:34:43 .
FUNcube-1 26 Nov 10:29:35 10:33:49 67° 101° (E) 10:38:07 145.935
BRITE-PL 26 Nov 10:30:32 10:33:11 17° 292° (WNW) 10:35:52 437.365/2234.400
SEEDS 26 Nov 10:32:46 10:35:37 18° 293° (WNW) 10:38:28 437.485
CUBEBUG 1 26 Nov 10:36:34 10:39:15 16° 93° (E) 10:41:54 437.445
Oscar 11 26 Nov 10:37:21 10:41:26 40° 287° (WNW) 10:45:30 145.826/435.025
POLYITAN 1 26 Nov 10:38:31 10:42:46 73° 258° (WSW) 10:47:02 437.675
QB50P2 26 Nov 10:40:23 10:44:38 70° 258° (WSW) 10:48:53 145.880/145.840
DUCHIFAT 1 26 Nov 10:46:13 10:50:26 60° 259° (W) 10:54:38 145.980
GONETS M04 26 Nov 10:47:43 10:52:24 15° 298° (WNW) 10:57:07
AAUSAT CUBESAT 2 26 Nov 10:49:07 10:51:37 16° 293° (WNW) 10:54:07 437.432
DELFI C3 26 Nov 10:51:22 10:55:01 31° 289° (WNW) 10:58:40 145.870
DOVE 4 26 Nov 10:53:59 10:56:46 18° 292° (WNW) 10:59:37 437.250
UWE-3 26 Nov 10:56:49 11:00:55 48° 286° (WNW) 11:05:06 435.000/436.395/437.385
50 SAT 26 Nov 10:57:15 11:01:19 70° 101° (E) 11:05:23 437.505
CUBEBUG 2 26 Nov 10:57:30 11:01:29 41° 287° (WNW) 11:05:34 437.445
DX 1 26 Nov 11:02:42 11:06:17 25° 291° (WNW) 11:09:50 434.975-435.025
NANOSAT C BR1 26 Nov 11:06:06 11:09:59 34° 262° (W) 11:13:53 145.865
HUMSAT D 26 Nov 11:11:07 11:15:15 65° 284° (WNW) 11:19:26 437.325/437.525
QB50P1 26 Nov 11:16:24 11:20:01 27° 264° (W) 11:23:38 145.935-145.965
TIGRISAT 26 Nov 11:21:02 11:23:51 17° 266° (W) 11:26:40 435.000
BUGSAT 1 26 Nov 11:24:50 11:28:24 26° 264° (W) 11:31:58 437.445
CINEMA 3 26 Nov 11:27:41 11:29:37 13° 294° (WNW) 11:31:34 145.822/145.860
ZACube-1 26 Nov 11:31:36 11:34:59 24° 290° (WNW) 11:38:25 437.345
ESTCUBE 1 26 Nov 11:33:41 11:38:14 78° 102° (ESE) 11:42:44 437.505/2401.250
VELOX 1 26 Nov 11:33:57 11:38:02 38° 289° (WNW) 11:42:05 145.980
UNISAT 6 26 Nov 11:36:25 11:37:54 12° 268° (W) 11:39:23 437.425
POPSAT HIP 1 26 Nov 11:42:50 11:45:05 14° 267° (W) 11:47:20 437.405
TISAT 1 26 Nov 11:47:01 11:50:26 24° 96° (E) 11:53:50 437.305
SPROUT 26 Nov 11:57:58 12:01:42 28° 97° (E) 12:05:23 437.525
AISAT 26 Nov 12:01:14 12:04:24 20° 293° (WNW) 12:07:34 437.250
CUBEBUG 1 26 Nov 12:11:42 12:15:47 39° 288° (WNW) 12:19:48 437.445
SO-50 26 Nov 12:26:54 12:31:41 52° 56° (NE) 12:36:28 436.795
Oscar 19 26 Nov 12:34:34 12:39:21 43° 71° (ENE) 12:44:10 437.125/150
ITUPSAT 1 26 Nov 12:47:02 12:49:59 16° 93° (E) 12:52:55 437.325
SWISSCUBE 26 Nov 12:57:06 13:00:54 23° 95° (E) 13:04:39 437.505
YUBILEINY 26 Nov 13:08:10 13:16:17 41° 75° (ENE) 13:24:19 435.215
AUBIESAT-1 26 Nov 13:18:45 13:23:23 40° 102° (ESE) 13:27:51 437.475
CUSAT 1 26 Nov 13:22:01 13:24:39 42° 281° (W) 13:27:09 437.405
TISAT 1 26 Nov 13:22:45 13:26:12 25° 291° (WNW) 13:29:37 437.305
M-CUBED/EXP-1 PRIME 26 Nov 13:24:13 13:29:03 51° 104° (ESE) 13:33:42 437.505
AO-7 26 Nov 13:27:22 13:30:24 12° 48° (NE) 13:33:26 29.400- 29.500
BEESAT 26 Nov 13:27:27 13:32:03 44° 99° (E) 13:36:36 436.000
ITAMSAT 1 26 Nov 13:28:25 13:33:30 55° 73° (ENE) 13:38:36 435.822/435.867
SPROUT 26 Nov 13:34:20 13:37:37 22° 291° (WNW) 13:40:53 437.525
PHONESAT 2.4 26 Nov 13:36:40 13:39:20 19° 146° (SE) 13:42:01 2401.200-2431.200
VERMONT LUNAR 26 Nov 13:45:03 13:48:13 29° 150° (SSE) 13:51:25 437.305
KKS-1 26 Nov 13:47:24 13:49:32 13° 92° (E) 13:51:40 437.445
DANDE 26 Nov 13:50:49 13:52:58 19° 283° (WNW) 13:54:58 436.750
HORYU 2 26 Nov 14:00:13 14:03:45 24° 68° (ENE) 14:07:18 437.375
Gurwin Techsat 1B 26 Nov 14:03:31 14:08:46 67° 74° (ENE) 14:14:03 435.225
SO-50 26 Nov 14:08:39 14:11:49 17° 251° (WSW) 14:14:59 436.795
RS-15 26 Nov 14:14:42 14:21:25 19° 100° (E) 14:28:04 29.354- 29.394
Oscar 19 26 Nov 14:15:09 14:18:51 20° 266° (W) 14:22:34 437.125/150
ITUPSAT 1 26 Nov 14:23:30 14:28:07 47° 288° (WNW) 14:32:41 437.325
SWISSCUBE 26 Nov 14:34:29 14:38:47 33° 290° (WNW) 14:43:02 437.505
STARS 26 Nov 14:40:25 14:44:28 35° 98° (E) 14:48:29 437.465
JAS-2 26 Nov 14:41:45 14:43:03 11° 52° (NE) 14:44:21 435.910
AUBIESAT-1 26 Nov 14:54:16 14:58:03 23° 298° (WNW) 15:01:46 437.475
M-CUBED/EXP-1 PRIME 26 Nov 15:00:14 15:03:38 19° 300° (WNW) 15:06:58 437.505
YUBILEINY 26 Nov 15:05:06 15:12:56 40° 273° (W) 15:20:46 435.215
BEESAT 26 Nov 15:06:18 15:09:31 18° 295° (WNW) 15:12:44 436.000
ITAMSAT 1 26 Nov 15:10:08 15:13:17 16° 268° (W) 15:16:28 435.822/435.867
AO-7 26 Nov 15:13:23 15:21:29 62° 67° (ENE) 15:29:38 29.400- 29.500
PHONESAT 2.4 26 Nov 15:14:05 15:17:47 79° 160° (SSE) 15:21:31 2401.200-2431.200
O/OREOS (USA 219) 26 Nov 15:18:18 15:22:12 29° 62° (ENE) 15:26:06 437.305
KKS-1 26 Nov 15:22:09 15:26:26 49° 287° (WNW) 15:30:43 437.445
VERMONT LUNAR 26 Nov 15:22:55 15:26:32 76° 346° (NNW) 15:30:10 437.305
MaSat-1 26 Nov 15:35:20 15:37:55 26° 297° (WNW) 15:40:18 437.345
HORYU 2 26 Nov 15:36:30 15:40:18 28° 263° (W) 15:44:07 437.375
Gurwin Techsat 1B 26 Nov 15:46:41 15:49:10 13° 269° (W) 15:51:40 435.225
Cubesat XI-IV 26 Nov 16:16:41 16:17:59 11° 59° (ENE) 16:19:16 437.490
STARS 26 Nov 16:17:36 16:20:41 19° 293° (WNW) 16:23:46 437.465
JAS-2 26 Nov 16:18:59 16:26:22 56° 70° (ENE) 16:33:59 435.910
RS-15 26 Nov 16:21:05 16:32:06 88° 119° (ESE) 16:43:05 29.354- 29.394
MOZHAYETS 4 26 Nov 16:31:33 16:35:17 23° 95° (E) 16:38:58
PHONESAT 2.4 26 Nov 16:53:05 16:56:44 53° 357° (N) 17:00:23 2401.200-2431.200
CUTE-I 26 Nov 16:54:26 16:58:44 25° 66° (ENE) 17:03:02 437.470
O/OREOS (USA 219) 26 Nov 16:57:54 17:01:26 23° 258° (WSW) 17:04:58 437.305
VERMONT LUNAR 26 Nov 17:01:41 17:05:14 52° 2° (N) 17:08:47 437.305
AO-7 26 Nov 17:07:58 17:14:40 27° 264° (W) 17:21:26 29.400- 29.500
PRISM 26 Nov 17:29:48 17:32:22 16° 93° (E) 17:34:55 437.425
Cubesat XI-IV 26 Nov 17:51:52 17:57:14 88° 76° (ENE) 18:02:38 437.490
JAS-2 26 Nov 18:05:10 18:11:35 30° 267° (W) 18:18:16 435.910
MOZHAYETS 4 26 Nov 18:08:24 18:12:29 31° 290° (WNW) 18:16:34
CUBESAT XI-V 26 Nov 18:15:09 18:18:38 21° 94° (E) 18:22:03 437.345
PHONESAT 2.4 26 Nov 18:32:02 18:35:45 75° 14° (NNE) 18:39:28 2401.200-2431.200
PCSat 26 Nov 18:32:36 18:36:40 22° 106° (ESE) 18:40:44 145.827
CUTE-I 26 Nov 18:33:36 18:38:34 38° 262° (W) 18:43:33 437.470
AIST 1 26 Nov 18:34:10 18:35:32 11° 84° (E) 18:36:55
RS-15 26 Nov 18:36:55 18:45:57 29° 324° (NW) 18:55:06 29.354- 29.394
VERMONT LUNAR 26 Nov 18:40:14 18:43:52 82° 199° (SSW) 18:47:29 437.305
HO-68 26 Nov 18:47:09 18:51:31 18° 57° (ENE) 18:55:54 435.675
GONETS M04 26 Nov 18:58:20 19:06:46 46° 76° (ENE) 19:15:04
STRAND 1 26 Nov 19:02:37 19:07:40 61° 101° (ESE) 19:12:41 437.568
PRISM 26 Nov 19:04:07 19:08:04 38° 288° (WNW) 19:11:58 437.425
AIST 2 26 Nov 19:16:53 19:17:20 10° 106° (ESE) 19:17:47 435.215
CUTE 1.7 & AOD 2 26 Nov 19:17:54 19:18:57 11° 64° (ENE) 19:19:59 437.475
GOMX 1 26 Nov 19:30:08 19:31:58 12° 66° (ENE) 19:33:47 467.674
SEEDS 26 Nov 19:47:35 19:50:42 21° 69° (ENE) 19:53:50 437.485
CUBESAT XI-V 26 Nov 19:51:54 19:56:08 35° 289° (WNW) 20:00:19 437.345
BEESAT 3 26 Nov 19:56:52 20:00:56 74° 118° (ESE) 20:05:05 437.485
Oscar 11 26 Nov 19:58:12 19:58:40 10° 63° (ENE) 19:59:07 145.826/435.025
BRITE-PL 26 Nov 19:59:55 20:04:30 37° 73° (ENE) 20:08:46 437.365/2234.400
AAUSAT CUBESAT 2 26 Nov 20:02:35 20:05:49 23° 69° (ENE) 20:09:05 437.432
AIST 1 26 Nov 20:08:22 20:12:39 53° 280° (W) 20:16:59
PHONESAT 2.4 26 Nov 20:11:04 20:14:24 31° 210° (SSW) 20:17:42 2401.200-2431.200
BEESAT 2 26 Nov 20:12:58 20:17:04 81° 300° (WNW) 20:21:16 435.950
PCSat 26 Nov 20:14:32 20:19:43 46° 302° (WNW) 20:24:56 145.827
CANX-2 26 Nov 20:15:39 20:19:46 56° 75° (ENE) 20:23:55 2200.000
COMPASS 1 26 Nov 20:17:46 20:21:37 38° 73° (ENE) 20:25:30 437.405
VERMONT LUNAR 26 Nov 20:19:21 20:22:01 19° 214° (SW) 20:24:39 437.305
DOVE 4 26 Nov 20:19:41 20:23:41 30° 72° (ENE) 20:27:31 437.250
DX 1 26 Nov 20:21:10 20:24:12 19° 67° (ENE) 20:27:15 434.975-435.025
CUBEBUG 2 26 Nov 20:21:16 20:22:05 11° 65° (ENE) 20:22:53 437.445
HO-68 26 Nov 20:31:05 20:38:17 87° 254° (WSW) 20:45:31 435.675
STRAND 1 26 Nov 20:43:26 20:46:19 15° 297° (WNW) 20:49:11 437.568
CINEMA 3 26 Nov 20:49:10 20:53:12 37° 73° (ENE) 20:57:07 145.822/145.860
CUTE 1.7 & AOD 2 26 Nov 20:50:10 20:54:20 60° 259° (W) 20:58:31 437.475
ZACube-1 26 Nov 20:50:46 20:53:29 17° 68° (ENE) 20:56:12 437.345
AIST 2 26 Nov 20:51:10 20:55:21 66° 302° (WNW) 20:59:37 435.215
GONETS M04 26 Nov 20:55:34 21:03:16 36° 275° (W) 21:10:56
VELOX 1 26 Nov 20:55:41 20:57:56 14° 64° (ENE) 21:00:10 145.980
RS-15 26 Nov 20:58:10 21:03:48 15° 359° (N) 21:09:32 29.354- 29.394
GOMX 1 26 Nov 21:04:53 21:09:40 62° 259° (W) 21:14:09 467.674
UKube-1 26 Nov 21:19:13 21:23:34 82° 76° (ENE) 21:27:57 .
AISAT 26 Nov 21:20:49 21:24:32 26° 69° (ENE) 21:28:15 437.250
SEEDS 26 Nov 21:22:43 21:26:21 29° 264° (W) 21:30:01 437.485
FUNcube-1 26 Nov 21:24:10 21:28:06 40° 73° (ENE) 21:32:01 145.935
Oscar 11 26 Nov 21:29:58 21:34:14 67° 259° (W) 21:38:32 145.826/435.025
CUBEBUG 1 26 Nov 21:32:38 21:34:18 12° 64° (ENE) 21:35:59 437.445
DELFI C3 26 Nov 21:37:49 21:41:50 63° 259° (W) 21:45:54 145.870
AAUSAT CUBESAT 2 26 Nov 21:37:54 21:41:23 26° 264° (W) 21:44:53 437.432
BEESAT 3 26 Nov 21:38:01 21:39:41 12° 316° (NW) 21:41:20 437.485
BRITE-PL 26 Nov 21:39:16 21:43:02 21° 265° (W) 21:46:37 437.365/2234.400
50 SAT 26 Nov 21:44:41 21:48:19 33° 72° (ENE) 21:51:57 437.505
UWE-3 26 Nov 21:52:18 21:56:33 76° 258° (WSW) 22:00:44 435.000/436.395/437.385
UNISAT 6 26 Nov 21:52:20 21:54:25 13° 92° (E) 21:56:30 437.425
CUBEBUG 2 26 Nov 21:54:03 21:58:17 61° 259° (W) 22:02:26 437.445
COMPASS 1 26 Nov 21:55:05 21:57:30 15° 267° (W) 21:59:56 437.405
CANX-2 26 Nov 21:55:23 21:56:03 10° 269° (W) 21:56:43 2200.000
DX 1 26 Nov 21:56:08 22:00:10 36° 262° (W) 22:04:13 434.975-435.025
DOVE 4 26 Nov 21:57:51 22:01:27 22° 264° (W) 22:04:55 437.250
HUMSAT D 26 Nov 22:01:34 22:05:40 68° 76° (ENE) 22:09:46 437.325/437.525
ISS 26 Nov 22:13:54 22:16:33 23° 131° (SE) 22:19:13 145.825
ANTELSAT 26 Nov 22:19:43 22:23:32 27° 96° (E) 22:27:23 437.575/2403.000
HO-68 26 Nov 22:23:43 22:26:50 13° 270° (W) 22:29:58 435.675
ZACube-1 26 Nov 22:25:44 22:29:36 35° 262° (W) 22:33:27 437.345
POLYITAN 1 26 Nov 22:27:15 22:30:27 21° 95° (E) 22:33:39 437.675
CINEMA 3 26 Nov 22:27:42 22:30:30 17° 266° (W) 22:33:16 145.822/145.860
QB50P2 26 Nov 22:28:50 22:32:06 22° 95° (E) 22:35:22 145.880/145.840
VELOX 1 26 Nov 22:29:40 22:34:03 53° 260° (W) 22:38:26 145.980
ESTCUBE 1 26 Nov 22:31:31 22:35:58 56° 74° (ENE) 22:40:26 437.505/2401.250
DUCHIFAT 1 26 Nov 22:34:06 22:37:33 24° 96° (E) 22:40:59 145.980
TISAT 1 26 Nov 22:39:01 22:41:34 16° 66° (ENE) 22:44:07 437.305
DANDE 26 Nov 22:48:35 22:51:16 14° 75° (ENE) 22:54:19 436.750
SPROUT 26 Nov 22:51:19 22:54:19 19° 68° (ENE) 22:57:20 437.525
NANOSAT C BR1 26 Nov 22:53:15 22:57:15 41° 99° (E) 23:01:14 145.865
AISAT 26 Nov 22:57:19 23:01:04 26° 264° (W) 23:04:50 437.250
FUNcube-1 26 Nov 23:02:22 23:04:38 14° 267° (W) 23:06:54 145.935
QB50P1 26 Nov 23:03:11 23:07:20 55° 100° (E) 23:11:28 145.935-145.965
CUBEBUG 1 26 Nov 23:05:45 23:10:08 61° 259° (W) 23:14:33 437.445
BUGSAT 1 26 Nov 23:08:52 23:12:50 51° 100° (E) 23:16:45 437.445
RS-15 26 Nov 23:12:43 23:21:51 28° 35° (NE) 23:31:13 29.354- 29.394
TIGRISAT 26 Nov 23:12:47 23:17:14 78° 284° (WNW) 23:21:46 435.000
50 SAT 26 Nov 23:21:13 23:23:43 16° 266° (W) 23:26:14 437.505
UNISAT 6 26 Nov 23:27:06 23:31:27 52° 286° (WNW) 23:35:53 437.425
POPSAT HIP 1 26 Nov 23:28:05 23:32:18 74° 284° (WNW) 23:36:30 437.405
ISS 26 Nov 23:50:04 23:53:04 33° 327° (NNW) 23:56:05 145.825
ITUPSAT 1 26 Nov 23:52:42 23:55:38 16° 64° (ENE) 23:58:36 437.325
ANTELSAT 26 Nov 23:56:32 00:00:13 26° 290° (WNW) 00:03:58 437.575/2403.000
CUSAT 1 26 Nov 23:59:27 00:04:24 82° 82° (E) 00:11:03 437.405
SWISSCUBE 27 Nov 00:02:22 00:06:03 23° 67° (ENE) 00:09:46 437.505
POLYITAN 1 27 Nov 00:02:45 00:06:24 29° 290° (WNW) 00:10:02 437.675
QB50P2 27 Nov 00:04:24 00:08:00 28° 290° (WNW) 00:11:35 145.880/145.840
AUBIESAT-1 27 Nov 00:06:41 00:10:25 36° 66° (ENE) 00:14:29 437.475
DUCHIFAT 1 27 Nov 00:09:55 00:13:20 25° 291° (WNW) 00:16:45 145.980
ESTCUBE 1 27 Nov 00:11:21 00:13:10 12° 269° (W) 00:14:59 437.505/2401.250
M-CUBED/EXP-1 PRIME 27 Nov 00:12:29 00:16:21 46° 68° (ENE) 00:20:36 437.505
TISAT 1 27 Nov 00:13:01 00:17:03 41° 261° (W) 00:21:06 437.305
JUGNU 27 Nov 00:25:09 00:27:46 13° 177° (S) 00:30:24 437.505
SPROUT 27 Nov 00:26:13 00:30:09 34° 262° (W) 00:34:06 437.525
DANDE 27 Nov 00:29:55 00:34:39 62° 263° (W) 00:41:03 436.750
NANOSAT C BR1 27 Nov 00:30:20 00:32:47 15° 294° (WNW) 00:35:13 145.865
BEESAT 27 Nov 00:32:16 00:36:44 41° 71° (ENE) 00:41:15 436.000
SRMSAT 27 Nov 00:39:12 00:40:30 11° 170° (S) 00:41:47 437.500
QB50P1 27 Nov 00:41:12 00:42:44 12° 296° (WNW) 00:44:17 145.935-145.965
KKS-1 27 Nov 00:45:50 00:46:44 11° 63° (ENE) 00:47:39 437.445
BUGSAT 1 27 Nov 00:46:26 00:47:52 12° 295° (WNW) 00:49:17 437.445
Oscar 19 27 Nov 00:49:00 00:52:26 18° 93° (E) 00:55:52 437.125/150
